Location: Borojevi?i
(45.0486°N, 16.2297°E)
Time: 07:02:48
(UTC+00:00)

Landsat 7 - Pass Details

Date: 08 August 2020
Orbit: 701 x 703 km, 98.1° (Epoch: 27 September)

Event Time Altitude Azimuth Distance (km) Brightness Sun altitude
Exits shadow 19:30:48 18° 138° (SE) 1,677 5.1 -12.8°
Maximum altitude 19:34:03 48° 71° (ENE) 924 4.2 -13.2°
Drops below altitude 10° 19:38:37 10° 358° (N) 2,180 7.0 -13.8°
Sets 19:40:57 0° 353° (N) 3,103 7.9 -14.2°
